Location: Unspecified
(45.3122°N, 0.0000°E)
Time: 03:58:39
(UTC+00:00)

ARIANE 6 FM1 Upper Stage - Visible Passes

Search period start: 05 April 2026 00:00
Search period end: 15 April 2026 00:00
Orbit: 524 x 605 km, 62.0° (Epoch: 29 March)

Date Brightness Start Highest point End Pass type
(mag) Time Alt. Az. Time Alt. Az. Time Alt. Az.
5 Apr 4.5 04:18:16 10° NNW 04:21:51 31° NE 04:25:24 10° ESE visible
6 Apr 5.8 02:40:18 10° N 02:41:37 11° NNE 02:42:54 10° NE visible
6 Apr 3.9 04:17:48 10° NNW 04:21:35 42° NE 04:25:22 10° ESE visible
6 Apr 4.9 19:57:56 10° S 19:58:00 10° S 19:58:00 10° S visible
7 Apr 5.7 02:39:29 10° N 02:41:32 13° NNE 02:43:33 10° ENE visible
7 Apr 3.1 04:17:22 10° NW 04:21:18 59° NE 04:25:13 10° SE visible
7 Apr 3.3 19:57:02 10° S 20:00:45 32° ESE 20:04:25 10° ENE visible
7 Apr 4.2 21:35:56 10° WSW 21:39:42 34° NW 21:43:25 10° NNE visible
7 Apr 6.0 23:19:22 10° NNW 23:19:51 10° NNW 23:20:20 10° NNW visible
8 Apr 5.5 02:38:49 10° N 02:41:24 16° NNE 02:43:58 10° ENE visible
8 Apr 2.5 04:16:59 10° NW 04:20:58 85° NE 04:24:55 10° SE visible
8 Apr 2.8 19:56:19 10° SSW 20:00:18 47° SE 20:04:14 10° NE visible
8 Apr 4.8 21:35:59 10° W 21:39:28 26° NW 21:42:54 10° NNE visible
9 Apr 5.2 02:38:13 10° NNW 02:41:14 20° NNE 02:44:14 10° E visible
9 Apr 2.4 04:16:39 10° NW 04:20:35 66° SW 04:24:30 10° SSE visible
9 Apr 2.5 19:55:46 10° SSW 19:59:54 69° SE 20:03:57 10° NE visible
9 Apr 5.2 21:36:09 10° W 21:39:16 20° NNW 21:42:21 10° NNE visible
10 Apr 4.7 02:37:39 10° NNW 02:41:02 26° NE 02:44:22 10° E visible
10 Apr 2.8 04:16:22 10° NW 04:20:10 44° SW 04:23:56 10° SSE visible
10 Apr 2.7 19:55:21 10° SW 19:59:31 83° NW 20:03:36 10° NE visible
10 Apr 5.5 21:36:25 10° WNW 21:39:05 17° NNW 21:41:44 10° NNE visible
11 Apr 6.0 01:00:25 10° NNE 01:00:38 10° NNE 01:00:52 10° NNE visible
11 Apr 4.2 02:37:07 10° NNW 02:40:47 34° NE 02:44:24 10° ESE visible
11 Apr 3.3 04:16:13 10° WNW 04:19:42 30° WSW 04:23:10 10° S visible
11 Apr 3.3 19:55:04 10° SW 19:59:10 58° NW 20:03:11 10° NE visible
11 Apr 5.8 21:36:49 10° WNW 21:38:57 14° NNW 21:41:03 10° N visible
12 Apr 5.8 00:59:01 10° N 01:00:33 12° NNE 01:02:05 10° NE visible
12 Apr 3.5 02:36:39 10° NNW 02:40:29 46° NE 02:44:18 10° ESE visible
12 Apr 3.7 04:16:11 10° WNW 04:19:11 21° WSW 04:22:11 10° SSW visible
12 Apr 4.0 19:54:54 10° WSW 19:58:50 42° NW 20:02:43 10° NNE visible
12 Apr 5.9 21:37:25 10° NW 21:38:49 11° NNW 21:40:14 10° N visible
13 Apr 5.6 00:58:14 10° N 01:00:25 14° NNE 01:01:19 13° NE visible
13 Apr 4.8 02:36:11 10° NW 02:44:18 - SE 02:37:04 16° NNW visible
13 Apr 4.7 04:20:43 10° SSW 04:20:43 10° SSW 04:20:49 10° SSW visible
13 Apr 4.6 19:54:50 10° WSW 19:58:32 31° NW 20:02:12 10° NNE visible
14 Apr 5.4 00:57:33 10° NNW 00:59:08 16° N 00:59:08 16° N visible
14 Apr 5.1 19:54:53 10° W 19:58:17 24° NW 20:01:39 10° NNE visible
